Theta_e
307 311 311 311 310 309 306 303 302 302 301 301 299 299 301 302 304 304 305 305 305 301 301 305 304 305 304 304 306 306 307 306 304 306 307 308 308 309 310 310 313 313 314 314 312 314 315 312 320 320 317 318 319 316
306 310 311 311 310 309 306 304 302 302 301 301 299 300 301 301 301 301 303 305 305 302 302 304 305 305 305 304 302 302 305 306 305 305 306 306 309 307 308 311 310 314 314 314 315 314 312 312 321 321 318 318 318 317
305 309 310 310 311 310 306 304 303 302 301 301 300 301 300 300 299 299 302 304 304 299 299 300 303 304 304 305 305 303 303 305 305 303 302 303 307 304 306 307 307 306 306 306 307 312 310 308 310 317 319 319 317 317
307 310 310 311 311 310 307 304 303 302 302 301 300 301 300 299 299 298 300 303 303 300 301 301 303 303 304 305 305 305 304 303 301 300 303 302 303 302 303 305 304 305 305 305 306 305 308 309 307 307 306 308 316 315
308 310 310 311 310 310 307 305 303 302 302 301 301 301 300 300 298 298 297 302 301 301 301 301 301 304 304 305 304 304 303 300 300 300 301 304 301 302 300 299 300 301 303 306 308 305 303 304 305 306 306 305 305 309
309 310 310 310 309 310 307 305 303 302 303 302 302 301 299 298 297 299 301 301 299 302 299 301 300 300 303 304 303 301 301 298 298 300 299 299 299 301 301 300 300 302 301 300 301 301 301 302 303 303 303 304 304 304
310 310 310 310 309 308 307 304 302 303 303 302 301 298 297 298 298 300 301 301 298 301 300 301 299 299 301 301 300 299 301 298 298 299 300 300 300 300 298 299 300 300 300 300 300 300 301 301 301 301 303 304 304 305
310 310 310 310 308 307 305 304 303 303 302 301 299 299 298 297 298 300 300 299 298 300 298 299 300 298 301 300 301 298 300 298 299 300 298 300 298 298 301 300 300 301 301 301 301 300 300 301 301 302 302 301 302 302
309 310 309 309 307 307 305 304 303 302 300 298 298 296 296 298 300 301 300 299 299 300 299 299 299 299 297 297 297 298 297 301 297 300 298 298 298 301 301 300 300 301 301 302 302 301 301 301 302 302 302 301 302 302
308 308 307 306 305 304 303 301 300 299 298 296 297 300 299 300 301 300 299 298 297 297 296 298 295 298 297 296 297 297 296 299 301 300 298 300 300 300 301 300 299 301 301 301 301 302 302 303 304 304 304 304 304 305
300 301 301 301 301 300 300 299 298 297 297 299 299 302 302 300 299 299 300 299 298 300 297 297 296 296 296 297 297 295 297 296 300 299 301 299 300 300 305 305 304 304 304 305 305 304 304 304 304 305 306 306 306 306
298 298 298 299 299 299 298 297 297 298 299 301 300 300 300 298 298 300 300 300 300 302 298 299 298 297 298 298 298 299 301 299 302 298 300 300 298 303 305 305 304 304 304 305 306 306 307 306 306 305 306 306 306 306
297 297 297 296 296 296 298 297 300 299 299 299 298 301 298 299 295 301 302 301 301 300 301 300 301 300 299 297 294 300 302 301 299 301 300 299 299 304 303 304 304 304 305 305 305 305 306 306 306 307 306 307 307 306
296 297 297 297 297 297 297 298 298 299 301 299 298 295 297 299 299 298 298 297 298 299 300 299 295 295 296 297 300 304 301 300 303 303 301 299 302 303 303 304 305 305 304 304 304 305 305 304 304 305 306 306 306 306
296 296 295 295 295 295 296 296 297 299 299 299 298 296 298 297 296 296 296 296 296 297 299 298 298 297 297 300 300 301 303 305 304 303 299 300 300 302 303 303 303 303 303 303 303 303 302 302 304 305 306 306 306 305
296 296 297 296 295 295 295 296 297 299 300 299 299 299 296 296 295 295 296 297 296 297 298 298 299 298 299 300 301 303 304 304 301 300 299 299 300 301 301 302 302 303 302 302 301 301 302 303 305 306 306 306 305 305
296 296 296 296 296 296 297 299 299 298 298 300 298 295 295 295 295 295 295 296 297 299 300 299 302 303 300 302 304 301 302 301 298 297 297 297 298 300 300 301 301 302 301 301 301 302 304 304 303 303 304 305 306 306
296 295 296 297 296 297 298 298 298 299 301 298 297 296 294 294 295 296 298 296 298 299 299 303 301 302 302 304 303 300 298 297 299 299 301 301 301 301 301 301 301 301 302 302 302 303 303 303 304 305 305 305 305 305
295 295 295 295 297 297 297 298 298 296 296 294 293 293 293 295 295 299 299 301 300 299 299 298 300 295 298 298 299 302 302 301 302 301 300 300 300 300 301 302 302 302 302 302 303 303 303 303 304 304 304 305 305 306
297 297 296 295 294 298 298 298 297 295 296 295 294 297 297 298 298 298 299 298 299 300 300 298 299 298 299 299 299 300 300 301 301 301 302 302 303 303 303 303 303 303 303 303 303 303 303 303 304 306 306 306 306 306
298 297 295 297 296 296 296 297 299 297 298 298 297 297 298 298 299 299 298 301 296 301 302 301 300 301 300 299 300 300 300 300 301 301 302 302 303 303 303 303 303 303 303 303 303 304 303 305 307 308 309 307 307 310
299 298 299 298 299 299 297 298 297 297 297 298 298 302 302 299 301 304 302 302 301 301 302 301 300 299 299 299 299 300 300 300 300 301 301 301 302 302 303 303 304 304 304 304 305 306 306 307 308 311 310 310 310 310
299 299 299 300 300 298 298 299 300 299 302 302 302 303 304 304 304 303 303 302 302 301 300 300 299 298 298 299 299 300 301 303 304 305 305 306 306 305 305 304 305 305 306 307 307 307 307 308 311 310 309 309 309 309
298 298 298 297 299 299 300 300 299 300 301 302 301 303 304 304 303 303 303 301 301 301 300 300 300 300 301 302 303 303 303 305 306 306 307 308 308 309 309 308 308 308 308 308 308 309 311 310 310 309 309 309 309 309
298 298 298 298 298 299 300 302 302 302 304 305 305 305 305 304 303 302 302 302 301 301 301 301 301 302 303 303 303 304 305 306 306 307 308 311 312 312 312 312 311 312 313 311 311 310 310 311 310 310 309 308 309 308
300 300 300 301 302 301 302 305 305 307 306 306 306 304 304 305 302 301 301 302 301 300 300 301 301 302 302 302 303 304 305 306 307 308 309 310 312 313 313 313 312 312 313 313 312 311 312 311 311 309 308 308 309 308
300 302 302 301 303 303 304 304 304 305 305 306 304 303 302 303 300 298 300 300 300 301 301 301 301 301 302 302 304 305 306 307 308 308 308 311 312 312 311 311 312 313 312 314 312 312 311 310 309 308 308 308 308 309
300 300 305 304 302 303 307 306 307 306 305 303 302 303 301 298 300 300 299 301 300 300 300 301 301 301 302 303 304 305 306 307 308 309 310 312 312 312 311 311 313 314 313 312 312 311 310 309 308 308 308 307 308 308
302 302 303 307 307 307 305 306 305 305 304 302 302 299 299 301 301 302 301 300 300 300 300 300 301 302 303 303 304 305 306 308 308 308 310 312 312 312 311 310 310 310 310 310 310 311 310 309 308 307 306 306 307 306
304 304 308 309 308 306 304 303 304 303 303 302 300 300 301 301 301 300 300 300 300 299 300 300 301 301 302 303 304 305 306 307 307 305 306 310 312 311 311 311 310 310 310 311 311 309 308 307 306 306 305 305 304 303
308 308 309 308 307 305 304 303 304 305 304 304 302 301 301 302 301 301 300 300 300 300 300 300 301 302 302 302 303 304 305 306 308 312 312 312 312 311 311 310 310 310 309 309 309 308 307 307 306 306 305 304 304 303
307 308 308 309 307 305 305 306 305 306 306 306 305 302 302 302 300 300 300 300 300 299 299 299 300 301 302 303 303 304 305 307 309 312 312 312 312 311 311 310 309 309 309 309 309 308 308 307 306 305 304 304 304 304
303 303 303 303 304 307 306 307 307 305 305 304 303 302 301 300 301 299 300 300 299 299 299 299 301 302 303 303 303 304 307 308 308 310 311 311 312 311 310 310 310 309 309 308 308 308 307 307 306 305 305 304 304 304
Wind_Speed
29 34 40 39 36 31 27 25 22 20 17 15 12 8 3 1 2 3 3 2 2 2 5 1 1 1 2 2 3 3 3 3 3 2 3 4 3 4 1 4 3 5 4 4 2 3 7 5 4 2 4 3 4 3
27 29 38 39 37 33 29 27 24 21 17 16 14 9 5 1 2 3 4 3 1 3 5 5 15 18 15 9 4 1 3 2 3 3 1 1 2 0 3 3 1 3 4 3 6 4 4 4 2 1 2 3 2 2
29 30 40 40 39 35 32 28 26 22 19 18 15 10 7 3 1 3 4 3 2 3 4 3 3 5 14 22 13 3 2 3 1 3 3 2 4 3 3 5 1 2 2 1 3 1 1 3 4 4 2 3 1 3
25 31 38 35 39 35 34 31 27 23 21 19 16 12 8 5 3 3 4 4 3 3 0 5 6 7 9 10 22 10 7 5 6 3 2 2 2 3 4 2 3 4 1 2 4 5 3 4 3 3 4 3 4 6
24 32 33 34 39 37 36 33 29 26 23 21 17 11 8 6 4 3 2 5 3 1 2 4 16 7 4 9 17 11 13 4 2 2 2 3 2 1 2 2 3 4 7 6 12 6 5 6 5 5 5 7 8 7
24 27 28 32 38 39 37 34 31 27 24 20 16 12 10 8 6 4 1 4 1 5 2 3 5 5 4 10 13 11 9 3 3 4 3 3 3 3 3 3 5 10 4 5 6 6 6 7 8 8 11 12 10 8
22 24 26 28 36 40 40 36 32 28 25 20 16 12 10 8 8 2 3 5 2 4 2 3 4 3 2 3 3 2 2 2 3 2 2 3 3 3 2 4 5 6 8 7 6 4 11 9 9 9 12 19 23 20
22 24 24 27 37 41 37 35 31 30 24 21 17 13 9 7 5 2 4 3 3 4 3 1 4 4 3 1 1 1 2 2 1 3 0 3 2 1 4 7 8 10 12 10 12 10 14 13 11 13 16 10 9 12
20 19 20 28 39 38 37 37 33 29 25 20 16 13 7 3 2 3 7 3 4 4 2 1 1 3 4 2 1 2 2 1 0 3 3 4 2 4 8 9 9 10 6 10 11 7 8 9 14 12 9 7 8 10
22 18 25 36 42 46 40 37 32 29 25 21 14 3 2 4 10 10 2 3 3 3 2 2 0 3 2 2 2 1 1 3 2 5 2 4 4 8 11 9 6 6 7 7 7 9 5 6 6 7 8 7 7 8
38 39 39 41 40 37 35 34 32 27 23 5 3 2 8 14 3 3 2 2 0 1 1 3 4 2 1 1 2 1 2 1 2 5 5 3 6 6 3 1 4 5 5 5 5 6 8 8 7 9 9 9 12 13
31 31 31 31 32 33 32 29 26 11 6 6 8 8 5 2 3 2 1 1 3 3 2 3 4 4 2 2 2 1 2 1 5 1 0 3 4 5 5 7 7 7 7 9 10 7 11 11 14 12 11 11 16 20
29 30 30 28 28 27 26 21 12 10 10 5 3 3 3 0 4 3 4 2 1 3 3 2 1 2 1 2 1 1 1 4 3 1 4 5 3 5 7 6 8 9 10 8 7 11 14 16 20 20 18 22 22 21
20 21 21 20 19 21 19 12 8 6 2 2 3 3 3 2 3 4 4 3 4 2 2 2 1 2 0 2 2 1 3 2 3 3 5 3 6 6 5 6 6 8 8 9 11 16 17 23 26 29 26 26 21 17
18 18 17 16 15 13 11 7 5 5 3 2 2 2 4 3 2 3 3 2 2 2 3 2 2 2 1 1 2 1 3 4 5 5 4 4 5 6 6 6 8 9 10 11 16 15 21 26 23 23 27 23 15 18
14 15 13 11 11 10 8 6 4 3 2 1 0 1 1 2 3 2 1 3 2 3 2 2 3 1 4 3 3 6 3 6 4 4 4 3 5 7 7 8 10 14 15 17 19 22 23 22 20 20 22 24 28 27
8 5 8 9 10 10 8 3 2 2 1 2 2 2 2 2 4 3 3 4 5 3 3 2 3 8 1 2 3 4 5 5 4 4 4 5 8 10 11 13 14 18 17 19 22 22 21 23 23 21 15 23 21 20
15 10 9 8 8 6 2 1 1 0 2 3 1 3 2 2 2 3 3 1 3 3 4 5 3 3 5 4 4 4 3 4 5 6 8 10 12 16 20 15 19 21 19 21 22 22 23 21 13 11 18 18 17 17
10 7 6 5 3 1 1 1 2 1 3 2 3 3 2 3 3 3 2 2 0 1 0 1 4 4 5 4 3 6 8 8 11 13 13 19 22 21 22 22 23 22 21 20 19 17 19 21 20 19 18 15 11 13
2 1 1 0 1 1 2 2 1 1 2 3 2 2 2 2 2 1 1 1 1 1 2 3 4 3 2 4 5 9 10 10 10 12 13 12 19 20 19 18 16 20 19 19 20 20 18 17 17 16 15 14 12 11
3 3 2 2 1 1 2 1 2 2 3 2 1 2 2 2 1 1 1 1 2 1 2 2 5 9 14 18 19 19 15 15 11 10 13 13 17 19 18 21 19 18 12 11 8 10 15 11 17 15 11 11 11 6
2 3 1 1 1 0 0 1 1 4 2 2 3 3 2 2 2 1 0 0 2 1 2 4 7 9 10 13 16 24 26 28 27 24 26 25 12 10 9 15 10 7 8 10 12 8 13 16 18 8 7 7 14 14
2 1 1 1 1 1 2 1 1 1 2 1 2 2 1 1 1 2 1 1 1 3 8 10 15 21 19 28 29 29 28 24 11 14 19 18 22 22 18 20 15 9 7 11 12 13 12 15 11 20 17 24 24 24
1 1 1 2 1 1 1 1 1 2 2 2 1 2 1 1 1 1 2 2 2 8 7 11 15 9 11 14 10 10 21 21 18 20 21 15 8 11 13 14 15 16 14 14 10 9 1 13 22 21 22 22 22 20
1 1 2 3 2 2 2 2 2 2 2 2 2 2 2 2 1 1 1 2 5 7 7 14 13 9 9 11 10 19 28 19 10 10 19 14 10 9 6 8 9 7 1 4 2 21 17 15 17 19 21 19 22 28
2 4 4 3 2 3 2 2 2 1 2 2 1 2 1 1 1 2 2 3 4 6 8 9 9 10 11 14 11 10 22 28 21 9 14 20 14 8 3 2 0 1 2 6 19 24 13 13 16 21 25 24 24 21
2 3 4 3 2 2 2 2 1 2 2 1 1 1 2 2 1 3 3 3 3 15 21 23 20 16 12 19 25 26 27 27 23 18 20 20 16 11 8 2 2 5 10 17 27 28 21 16 19 25 24 21 26 24
4 2 4 4 3 3 2 2 4 3 1 1 2 1 2 4 2 2 2 14 20 22 22 23 22 21 21 23 25 25 25 28 29 23 23 19 23 22 19 18 13 15 23 27 30 29 24 24 24 24 25 25 26 24
3 3 3 3 3 3 4 2 2 2 3 2 3 1 1 1 1 2 7 16 18 17 15 20 25 29 28 27 25 26 26 23 18 14 14 9 10 22 24 23 24 27 32 35 34 22 21 29 28 30 31 31 32 30
4 4 3 3 4 4 4 4 4 2 2 3 4 2 2 1 3 8 16 18 15 15 17 17 18 18 19 20 23 31 31 28 23 11 5 8 10 20 22 22 23 28 28 22 18 27 32 33 33 32 31 29 28 27
3 3 2 2 2 3 3 3 4 3 2 2 2 3 2 2 1 5 18 20 17 16 17 20 22 22 21 23 21 18 15 25 23 20 21 22 24 24 24 21 18 16 19 26 27 28 28 27 28 27 27 27 29 29
4 5 4 2 2 0 3 3 3 2 2 2 2 2 1 2 1 3 10 18 18 17 18 18 17 22 28 28 25 23 21 21 19 14 15 16 17 14 19 20 22 26 26 26 27 28 29 28 26 27 29 29 29 31
2 2 2 3 1 1 2 3 3 2 2 2 2 3 2 2 1 2 6 14 15 19 20 23 22 17 23 24 22 21 20 21 16 23 15 12 11 11 11 11 18 20 22 25 27 29 30 31 28 28 28 28 29 27
Wind_Direction
228 227 228 221 208 208 209 209 207 208 206 198 191 188 185 1 4 102 115 140 95 150 279 276 332 103 11 91 148 268 47 335 40 98 138 213 187 238 259 238 200 191 165 195 116 199 275 324 340 266 221 48 122 124
226 225 225 221 203 203 204 204 203 202 200 192 187 181 177 160 18 107 133 125 167 146 237 279 276 267 246 228 153 338 181 179 204 89 219 105 223 274 175 241 323 231 187 190 173 217 249 308 8 13 103 158 207 171
223 226 222 216 202 200 199 200 199 196 193 189 182 177 173 162 91 99 105 73 111 49 310 344 285 308 244 232 222 136 285 159 95 163 158 179 238 133 188 238 234 343 10 112 21 117 327 2 36 61 40 347 235 227
219 219 216 213 204 197 193 195 194 191 188 183 178 176 174 175 183 126 126 56 89 111 104 284 324 309 307 242 218 215 146 107 106 82 111 157 197 174 217 244 180 206 57 222 247 303 291 245 89 1 326 327 265 249
214 212 212 214 205 197 191 189 187 186 181 179 178 179 179 181 177 150 143 127 42 126 219 285 309 292 329 190 183 161 144 113 115 88 120 227 232 173 226 75 229 186 202 240 270 203 196 244 279 335 304 262 251 253
209 208 208 212 207 197 188 184 183 182 180 179 183 177 170 162 151 126 123 129 128 186 89 310 294 297 306 185 172 141 139 103 110 144 214 255 260 164 223 225 254 224 255 210 248 219 219 225 235 235 252 259 252 248
199 203 206 207 202 194 183 179 178 178 177 171 166 158 157 163 164 155 179 129 128 167 102 308 307 279 291 104 62 85 104 120 128 173 221 219 260 163 191 204 233 233 252 249 225 211 283 251 251 229 227 246 256 260
201 205 196 199 192 182 174 174 171 171 161 155 148 152 153 155 170 258 125 120 109 114 80 232 275 339 21 82 145 82 113 40 271 198 80 205 329 106 263 240 235 238 250 263 258 235 238 256 278 272 260 251 252 251
182 176 181 190 184 174 168 164 158 151 144 140 145 136 121 149 151 134 123 88 68 80 152 97 237 259 355 9 86 44 93 158 324 200 232 122 207 224 236 245 242 240 227 258 276 265 262 256 262 267 267 261 239 260
140 153 167 160 151 146 143 140 138 138 140 144 135 134 116 172 138 124 71 30 23 356 58 212 207 270 55 5 357 81 36 222 213 236 109 195 241 238 247 255 272 290 282 280 263 283 264 258 266 276 271 260 237 250
94 101 109 116 122 126 130 135 137 142 140 139 130 88 120 136 116 45 79 97 55 313 208 235 189 243 288 131 231 191 210 227 263 253 172 234 261 251 186 186 236 266 273 256 224 243 244 238 251 262 263 255 251 249
99 104 109 115 121 126 129 134 137 130 121 133 117 109 123 67 48 115 192 115 185 228 206 188 219 195 264 110 113 305 230 35 251 351 166 257 260 211 215 236 249 255 260 263 256 242 264 260 256 252 254 248 248 253
96 101 104 109 117 126 131 129 119 121 131 126 90 92 97 107 55 185 185 240 231 211 205 197 229 188 73 67 67 25 253 239 343 274 237 234 238 225 228 241 259 260 255 258 283 284 278 273 274 269 267 264 262 254
107 111 118 124 131 139 142 120 103 105 106 95 126 97 155 182 224 195 197 197 235 172 158 125 310 124 185 45 125 240 247 355 264 244 238 240 227 246 258 243 248 263 274 270 271 275 276 281 282 278 271 277 266 256
105 110 113 116 128 140 146 128 95 61 71 83 97 158 192 221 229 228 222 282 250 144 114 83 51 100 309 133 201 319 261 239 228 234 237 233 246 247 252 256 257 259 262 271 276 280 284 284 279 275 276 272 262 281
95 97 91 114 127 133 134 119 70 46 56 40 162 353 231 79 333 339 241 252 204 127 71 47 114 85 240 194 172 218 230 226 240 223 233 253 253 261 260 259 263 269 272 280 282 283 281 281 277 280 285 275 278 274
81 76 97 119 125 128 121 72 55 38 9 295 277 257 181 198 224 241 197 238 155 110 188 129 172 215 135 228 232 211 223 237 257 284 281 258 266 273 271 276 276 281 287 287 285 281 279 284 285 283 279 280 280 273
104 107 94 95 129 124 78 63 84 88 260 247 200 264 226 218 254 285 239 178 138 159 142 211 158 180 219 215 232 245 280 307 287 280 288 283 280 281 283 285 283 280 279 281 283 285 284 284 280 277 283 283 280 274
112 110 98 94 102 79 83 251 150 258 249 251 266 266 233 253 244 269 299 337 293 161 109 208 244 213 233 248 271 304 299 296 295 294 290 290 283 278 278 278 279 281 281 280 282 280 283 282 278 279 277 274 265 267
116 126 116 15 112 70 4 294 173 144 270 247 272 322 263 237 271 284 358 3 353 351 284 238 245 266 264 277 284 287 284 282 282 286 285 283 280 280 275 273 273 278 279 280 276 277 278 282 281 274 260 248 251 266
91 87 91 96 108 200 191 287 268 208 294 307 272 322 277 343 349 341 279 41 29 197 269 255 282 297 300 292 287 283 281 279 272 269 276 284 284 284 284 283 277 273 271 273 272 278 275 269 282 289 253 246 259 227
85 122 93 74 24 309 293 297 227 291 315 280 335 337 329 8 331 323 117 264 260 231 261 294 300 298 297 293 288 286 282 279 277 274 273 271 272 275 273 270 256 262 258 257 262 269 282 288 296 268 153 106 92 105
97 16 281 140 166 65 261 354 263 285 267 287 309 261 216 228 258 269 326 237 265 253 283 292 285 283 277 282 283 283 283 281 277 275 274 274 273 268 260 267 264 250 265 270 262 267 282 302 110 106 103 100 90 91
178 181 175 191 331 253 271 234 211 229 256 249 250 277 241 242 54 30 276 265 247 288 294 297 300 298 304 301 296 294 299 298 288 285 283 279 278 274 259 252 258 256 248 257 262 274 108 103 107 107 102 101 96 101
102 213 175 235 225 229 244 235 213 216 252 223 226 246 231 185 169 252 274 293 314 317 318 318 318 319 313 306 307 314 321 324 314 306 304 307 298 294 280 279 268 284 245 195 270 123 121 106 113 113 124 117 106 129
247 205 197 222 174 202 219 257 218 188 226 198 258 267 268 147 59 314 284 286 299 313 318 319 318 317 313 314 313 318 319 323 322 321 325 332 333 313 309 312 140 146 156 143 133 127 118 123 116 105 120 116 110 116
249 234 203 216 227 187 229 245 281 298 265 208 145 16 23 30 345 266 284 286 291 319 317 313 311 306 303 309 317 325 329 333 331 327 326 333 350 22 29 6 24 115 140 134 131 129 121 111 115 118 124 121 126 123
238 243 217 173 201 215 228 198 197 215 221 148 87 41 157 185 241 256 256 313 332 332 322 320 324 325 322 324 324 328 337 346 346 358 17 40 46 43 54 69 92 117 122 126 127 126 116 120 120 117 121 117 122 137
230 231 179 235 216 197 213 191 167 210 174 100 114 217 248 232 29 354 326 336 342 340 332 340 341 344 345 349 352 354 351 352 352 354 12 29 36 36 46 62 77 93 111 117 124 112 105 128 125 121 122 127 137 143
239 175 207 229 186 187 218 164 167 160 90 120 123 92 90 125 122 31 12 0 349 342 334 331 332 344 346 348 343 346 358 3 9 5 358 16 23 27 61 80 92 105 112 108 105 111 115 117 118 117 117 122 121 119
154 156 247 209 157 198 181 147 93 95 106 102 92 116 178 143 198 7 13 0 354 350 351 352 350 352 351 346 343 339 340 356 14 38 44 38 33 46 59 94 120 127 122 122 123 119 112 110 114 117 116 118 121 121
185 189 143 146 232 195 113 121 139 122 133 117 123 102 115 86 16 310 2 358 359 357 350 351 346 335 350 347 351 357 3 3 16 48 49 43 36 44 58 83 121 131 133 129 128 128 127 120 119 120 123 124 127 133
103 118 147 121 89 148 205 122 132 107 95 133 142 136 144 133 152 289 5 10 7 0 355 350 348 353 1 359 5 17 27 24 51 77 63 47 60 81 67 62 92 106 120 129 132 134 130 130 126 129 128 128 128 132